When you browse on this site, cookies collect data to enhance your experience and personalize the content and advertising you see.
Visit our Privacy Policy to learn more. By continuing to use the site, you agree to this use of cookies and data.
  • In United Kingdom
  • List of Countries
  • For 7 days
  • Water Temperature
  • Weather Map
  • Weather Widgets
  • user-avatar
    Login

    Hourly Weather Nakhchivan

    Today, 5 June, Friday

    Time Temperature Precipitation Wind Pressure Humidity
    00:00 +25°C° 0 mm 3 mps 688 mmHg 32%
    01:00 +24°C° 0 mm 3 mps 688 mmHg 33%
    02:00 +22°C° 0 mm 3 mps 687 mmHg 35%
    03:00 +23°C° 0 mm 2 mps 687 mmHg 36%
    04:00 +23°C° 0 mm 2 mps 688 mmHg 36%
    05:00 +23°C° 0 mm 2 mps 688 mmHg 35%
    06:00 +24°C° 0 mm 1 mps 689 mmHg 34%
    07:00 +25°C° 0 mm 2 mps 689 mmHg 32%
    08:00 +26°C° 0 mm 2 mps 689 mmHg 29%
    09:00 +27°C° 0 mm 2 mps 689 mmHg 26%
    10:00 +28°C° 0 mm 2 mps 689 mmHg 24%
    11:00 +29°C° 0 mm 2 mps 689 mmHg 22%
    12:00 +30°C° 0 mm 1 mps 689 mmHg 20%
    13:00 +31°C° 0 mm 1 mps 689 mmHg 19%
    14:00 +32°C° 0 mm 1 mps 689 mmHg 17%
    15:00 +32°C° 0 mm 1 mps 688 mmHg 16%
    16:00 +33°C° 0 mm 3 mps 688 mmHg 18%
    17:00 +32°C° 0 mm 6 mps 688 mmHg 19%
    18:00 +31°C° 0 mm 8 mps 689 mmHg 20%
    19:00 +29°C° 0 mm 6 mps 689 mmHg 23%
    20:00 +28°C° 0 mm 4 mps 689 mmHg 26%
    21:00 +26°C° 0 mm 2 mps 689 mmHg 29%
    22:00 +26°C° 0 mm 2 mps 689 mmHg 30%
    23:00 +25°C° 0 mm 2 mps 690 mmHg 32%

    Tomorrow, 6 June, Saturday

    Time Temperature Precipitation Wind Pressure Humidity
    00:00 +24°C° 0 mm 2 mps 690 mmHg 33%
    01:00 +24°C° 0 mm 2 mps 690 mmHg 35%
    02:00 +23°C° 0 mm 2 mps 690 mmHg 37%
    03:00 +21°C° 0 mm 2 mps 690 mmHg 40%
    04:00 +21°C° 0.1 mm 2 mps 690 mmHg 40%
    05:00 +21°C° 0.1 mm 2 mps 690 mmHg 41%
    06:00 +21°C° 0.1 mm 2 mps 690 mmHg 42%
    07:00 +23°C° 0.1 mm 2 mps 690 mmHg 39%
    08:00 +25°C° 0.1 mm 2 mps 690 mmHg 36%
    09:00 +26°C° 0.1 mm 3 mps 691 mmHg 33%
    10:00 +27°C° 0 mm 3 mps 691 mmHg 29%
    11:00 +28°C° 0 mm 3 mps 690 mmHg 26%
    12:00 +30°C° 0 mm 3 mps 690 mmHg 23%
    13:00 +30°C° 0 mm 3 mps 690 mmHg 21%
    14:00 +31°C° 0 mm 3 mps 690 mmHg 19%
    15:00 +31°C° 0 mm 3 mps 690 mmHg 17%
    16:00 +32°C° 0 mm 4 mps 690 mmHg 20%
    17:00 +30°C° 0 mm 4 mps 690 mmHg 23%
    18:00 +29°C° 0 mm 5 mps 690 mmHg 25%
    19:00 +28°C° 0.1 mm 4 mps 690 mmHg 31%
    20:00 +26°C° 0.1 mm 3 mps 691 mmHg 37%
    21:00 +25°C° 0.1 mm 1 mps 691 mmHg 43%
    22:00 +24°C° 0 mm 1 mps 691 mmHg 45%
    23:00 +23°C° 0 mm 1 mps 691 mmHg 47%

    Day after tomorrow, 7 June, Sunday

    Time Temperature Precipitation Wind Pressure Humidity
    00:00 +22°C° 0 mm 1 mps 690 mmHg 49%
    01:00 +22°C° 0 mm 1 mps 690 mmHg 51%
    02:00 +21°C° 0 mm 1 mps 690 mmHg 54%
    03:00 +21°C° 0 mm 1 mps 690 mmHg 56%
    04:00 +21°C° 0 mm 1 mps 690 mmHg 54%
    05:00 +21°C° 0 mm 1 mps 690 mmHg 53%
    06:00 +21°C° 0 mm 1 mps 690 mmHg 51%
    07:00 +23°C° 0 mm 1 mps 690 mmHg 47%
    08:00 +24°C° 0 mm 1 mps 690 mmHg 42%
    09:00 +25°C° 0 mm 1 mps 690 mmHg 38%
    10:00 +26°C° 0 mm 1 mps 690 mmHg 34%
    11:00 +28°C° 0 mm 1 mps 690 mmHg 30%
    12:00 +29°C° 0 mm 1 mps 690 mmHg 26%
    13:00 +30°C° 0 mm 1 mps 690 mmHg 25%
    14:00 +30°C° 0 mm 2 mps 690 mmHg 23%
    15:00 +31°C° 0 mm 2 mps 690 mmHg 21%
    16:00 +31°C° 0 mm 3 mps 690 mmHg 22%
    17:00 +31°C° 0 mm 3 mps 689 mmHg 23%
    18:00 +30°C° 0 mm 4 mps 689 mmHg 24%
    19:00 +29°C° 0 mm 4 mps 689 mmHg 28%
    20:00 +27°C° 0 mm 4 mps 690 mmHg 32%
    21:00 +26°C° 0 mm 3 mps 690 mmHg 36%
    22:00 +25°C° 0 mm 3 mps 690 mmHg 38%
    23:00 +24°C° 0 mm 3 mps 689 mmHg 40%

    8 June, Monday

    Time Temperature Precipitation Wind Pressure Humidity
    00:00 +22°C° 0 mm 3 mps 689 mmHg 42%
    01:00 +23°C° 0 mm 2 mps 689 mmHg 44%
    02:00 +21°C° 0 mm 2 mps 689 mmHg 45%
    03:00 +21°C° 0 mm 1 mps 688 mmHg 46%
    04:00 +22°C° 0 mm 1 mps 688 mmHg 44%
    05:00 +22°C° 0 mm 1 mps 689 mmHg 42%
    06:00 +22°C° 0 mm 1 mps 689 mmHg 40%
    07:00 +24°C° 0 mm 1 mps 689 mmHg 36%
    08:00 +25°C° 0 mm 1 mps 689 mmHg 32%
    09:00 +27°C° 0 mm 1 mps 689 mmHg 27%
    10:00 +28°C° 0 mm 1 mps 689 mmHg 23%
    11:00 +29°C° 0 mm 2 mps 689 mmHg 19%
    12:00 +31°C° 0 mm 2 mps 689 mmHg 16%
    13:00 +32°C° 0 mm 2 mps 689 mmHg 15%
    14:00 +33°C° 0 mm 3 mps 688 mmHg 14%
    15:00 +34°C° 0 mm 3 mps 688 mmHg 13%
    16:00 +34°C° 0 mm 3 mps 688 mmHg 15%
    17:00 +33°C° 0 mm 4 mps 688 mmHg 16%
    18:00 +33°C° 0 mm 4 mps 688 mmHg 18%
    19:00 +30°C° 0 mm 4 mps 688 mmHg 22%
    20:00 +28°C° 0 mm 3 mps 688 mmHg 26%
    21:00 +26°C° 0 mm 3 mps 688 mmHg 30%
    22:00 +25°C° 0 mm 3 mps 688 mmHg 31%
    23:00 +24°C° 0 mm 2 mps 688 mmHg 33%

    9 June, Tuesday

    Time Temperature Precipitation Wind Pressure Humidity
    00:00 +23°C° 0 mm 2 mps 688 mmHg 34%
    01:00 +23°C° 0 mm 2 mps 687 mmHg 35%
    02:00 +21°C° 0 mm 2 mps 687 mmHg 36%
    03:00 +21°C° 0 mm 1 mps 687 mmHg 36%
    04:00 +22°C° 0 mm 1 mps 687 mmHg 35%
    05:00 +22°C° 0 mm 1 mps 687 mmHg 34%
    06:00 +23°C° 0 mm 1 mps 688 mmHg 32%
    07:00 +24°C° 0 mm 1 mps 688 mmHg 28%
    08:00 +26°C° 0 mm 1 mps 688 mmHg 23%
    09:00 +28°C° 0 mm 1 mps 688 mmHg 18%
    10:00 +29°C° 0 mm 2 mps 688 mmHg 16%
    11:00 +31°C° 0 mm 2 mps 688 mmHg 13%
    12:00 +32°C° 0 mm 2 mps 688 mmHg 10%
    13:00 +34°C° 0 mm 2 mps 688 mmHg 10%
    14:00 +34°C° 0 mm 3 mps 688 mmHg 10%
    15:00 +35°C° 0 mm 3 mps 688 mmHg 10%
    16:00 +35°C° 0 mm 3 mps 688 mmHg 12%
    17:00 +34°C° 0 mm 3 mps 688 mmHg 14%
    18:00 +33°C° 0 mm 4 mps 688 mmHg 16%
    19:00 +30°C° 0 mm 3 mps 688 mmHg 21%
    20:00 +28°C° 0 mm 3 mps 688 mmHg 26%
    21:00 +26°C° 0 mm 2 mps 688 mmHg 31%
    22:00 +26°C° 0 mm 2 mps 688 mmHg 31%
    23:00 +25°C° 0 mm 2 mps 688 mmHg 32%

    10 June, Wednesday

    Time Temperature Precipitation Wind Pressure Humidity
    00:00 +24°C° 0 mm 1 mps 688 mmHg 33%
    01:00 +24°C° 0 mm 1 mps 688 mmHg 34%
    02:00 +23°C° 0 mm 1 mps 687 mmHg 34%
    03:00 +23°C° 0 mm 1 mps 687 mmHg 35%
    04:00 +23°C° 0 mm 1 mps 687 mmHg 34%
    05:00 +24°C° 0 mm 1 mps 688 mmHg 33%
    06:00 +24°C° 0 mm 1 mps 688 mmHg 32%
    07:00 +26°C° 0 mm 1 mps 688 mmHg 29%
    08:00 +27°C° 0 mm 1 mps 688 mmHg 26%
    09:00 +28°C° 0 mm 1 mps 688 mmHg 24%
    10:00 +30°C° 0 mm 1 mps 688 mmHg 22%
    11:00 +31°C° 0 mm 1 mps 688 mmHg 21%
    12:00 +32°C° 0 mm 2 mps 689 mmHg 20%
    13:00 +34°C° 0.1 mm 2 mps 688 mmHg 19%
    14:00 +35°C° 0.1 mm 2 mps 688 mmHg 19%
    15:00 +35°C° 0.1 mm 2 mps 688 mmHg 18%
    16:00 +35°C° 0.1 mm 3 mps 688 mmHg 21%
    17:00 +34°C° 0.1 mm 3 mps 688 mmHg 24%
    18:00 +33°C° 0.1 mm 4 mps 688 mmHg 27%
    19:00 +30°C° 0.2 mm 4 mps 688 mmHg 33%
    20:00 +28°C° 0.2 mm 3 mps 688 mmHg 39%
    21:00 +26°C° 0.2 mm 3 mps 688 mmHg 46%
    22:00 +25°C° 0 mm 2 mps 688 mmHg 47%
    23:00 +25°C° 0 mm 2 mps 688 mmHg 49%
    Show more